KLM44C EGNV-EHAM

Flight info

Callsign KLM44C
Flight time N/A
Altitude 33000
Route ERKIT N110 DOLAS L603 LAMSO
Aircraft E175/M-SDE2E3FGIJ1RWY/LB1

Departure

Time 2026-05-05 17:23
Airport Teesside International Airport (EGNV)

Arrival

Time N/A
Airport Amsterdam Airport Schiphol (EHAM)
Time Latitude Longitude Altitude Speed Heading
2026-05-05 16:58 54.51144 -1.43245 126 ft 0 kts 329°
2026-05-05 17:14 54.51127 -1.43223 123 ft 4 kts 314°
2026-05-05 17:14 54.51114 -1.43185 123 ft 4 kts 277°
2026-05-05 17:15 54.51121 -1.43146 120 ft 4 kts 219°
2026-05-05 17:15 54.51126 -1.43139 121 ft 0 kts 209°
2026-05-05 17:18 54.51118 -1.43147 120 ft 4 kts 209°
2026-05-05 17:19 54.51088 -1.43176 124 ft 8 kts 208°
2026-05-05 17:19 54.51040 -1.43268 125 ft 11 kts 239°
2026-05-05 17:19 54.50997 -1.43390 124 ft 13 kts 239°
2026-05-05 17:19 54.50947 -1.43534 123 ft 15 kts 238°
2026-05-05 17:20 54.50873 -1.43678 126 ft 17 kts 217°
2026-05-05 17:20 54.50758 -1.43771 122 ft 16 kts 181°
2026-05-05 17:20 54.50661 -1.43857 122 ft 17 kts 228°
2026-05-05 17:20 54.50576 -1.44018 123 ft 19 kts 227°
2026-05-05 17:21 54.50484 -1.44190 125 ft 21 kts 227°
2026-05-05 17:21 54.50394 -1.44347 126 ft 10 kts 215°
2026-05-05 17:21 54.50330 -1.44367 125 ft 9 kts 167°
2026-05-05 17:22 54.50242 -1.44208 122 ft 3 kts 62°
2026-05-05 17:22 54.50246 -1.44199 124 ft 0 kts 47°
2026-05-05 17:22 54.50385 -1.43941 120 ft 69 kts 47°
2026-05-05 17:23 54.50887 -1.43002 143 ft 139 kts 47°
2026-05-05 17:23 54.51587 -1.41707 895 ft 151 kts 46°
2026-05-05 17:23 54.52324 -1.40306 1612 ft 164 kts 47°
2026-05-05 17:23 54.53096 -1.38801 2287 ft 172 kts 47°
2026-05-05 17:24 54.53893 -1.37160 2932 ft 189 kts 56°
2026-05-05 17:24 54.54178 -1.34880 3475 ft 215 kts 96°
2026-05-05 17:24 54.53500 -1.32476 4012 ft 237 kts 135°
2026-05-05 17:24 54.52087 -1.30828 4578 ft 255 kts 151°
2026-05-05 17:25 54.50503 -1.29245 5159 ft 272 kts 150°
2026-05-05 17:25 54.49951 -1.28680 5401 ft 275 kts 150°
2026-05-05 17:25 54.47186 -1.25841 6790 ft 282 kts 150°
2026-05-05 17:25 54.45500 -1.24088 7602 ft 285 kts 150°
2026-05-05 17:26 54.43795 -1.22301 8373 ft 289 kts 150°
2026-05-05 17:26 54.42072 -1.20489 9202 ft 292 kts 150°
2026-05-05 17:26 54.40330 -1.18642 10029 ft 296 kts 150°
2026-05-05 17:26 54.38529 -1.16733 10405 ft 316 kts 150°
2026-05-05 17:27 54.36588 -1.14675 10642 ft 339 kts 149°
2026-05-05 17:27 54.35258 -1.13198 10923 ft 348 kts 148°
2026-05-05 17:27 54.33224 -1.10889 11662 ft 352 kts 149°
2026-05-05 17:27 54.31156 -1.08634 12538 ft 354 kts 150°
2026-05-05 17:28 54.29041 -1.06422 13346 ft 359 kts 151°
2026-05-05 17:28 54.26888 -1.04245 14204 ft 362 kts 152°
2026-05-05 17:28 54.24696 -1.02069 15017 ft 366 kts 152°
2026-05-05 17:28 54.22478 -0.99900 15832 ft 369 kts 152°
2026-05-05 17:29 54.20225 -0.97741 16600 ft 373 kts 153°
2026-05-05 17:29 54.17936 -0.95596 17362 ft 377 kts 153°
2026-05-05 17:29 54.15606 -0.93470 18092 ft 381 kts 154°
2026-05-05 17:29 54.13241 -0.91379 18760 ft 384 kts 155°
2026-05-05 17:30 54.10898 -0.89343 19740 ft 376 kts 155°
2026-05-05 17:30 54.08534 -0.87319 20151 ft 386 kts 155°
2026-05-05 17:30 54.06076 -0.85313 19936 ft 397 kts 156°
2026-05-05 17:30 54.03613 -0.83325 21081 ft 380 kts 155°
2026-05-05 17:31 54.01376 -0.81130 22087 ft 377 kts 149°
2026-05-05 17:31 53.99161 -0.78566 22628 ft 383 kts 146°
2026-05-05 17:31 53.96996 -0.75958 23110 ft 390 kts 146°
2026-05-05 17:31 53.94755 -0.73288 23524 ft 398 kts 147°
2026-05-05 17:32 53.92454 -0.70587 23913 ft 406 kts 147°
2026-05-05 17:32 53.90110 -0.67856 24363 ft 411 kts 147°
2026-05-05 17:32 53.87751 -0.65056 24792 ft 417 kts 142°
2026-05-05 17:32 53.85842 -0.61352 25271 ft 422 kts 122°
2026-05-05 17:33 53.84450 -0.56973 25877 ft 422 kts 117°
2026-05-05 17:33 53.83154 -0.52544 26575 ft 418 kts 117°
2026-05-05 17:33 53.81866 -0.48153 27227 ft 415 kts 117°
2026-05-05 17:33 53.80577 -0.43800 27875 ft 413 kts 117°
2026-05-05 17:34 53.79290 -0.39480 28544 ft 410 kts 117°
2026-05-05 17:34 53.78006 -0.35186 29206 ft 407 kts 117°
2026-05-05 17:34 53.76731 -0.30929 29859 ft 405 kts 117°
2026-05-05 17:34 53.75463 -0.26696 30418 ft 403 kts 117°
2026-05-05 17:35 53.74215 -0.22528 30895 ft 402 kts 116°
2026-05-05 17:35 53.72957 -0.18321 31354 ft 401 kts 116°
2026-05-05 17:35 53.71725 -0.14229 32446 ft 371 kts 117°
2026-05-05 17:35 53.70545 -0.10449 33281 ft 366 kts 117°
2026-05-05 17:36 53.69390 -0.06615 33563 ft 369 kts 116°
2026-05-05 17:36 53.67040 0.01372 33459 ft 392 kts 116°
2026-05-05 17:36 53.65816 0.05542 33387 ft 403 kts 116°
2026-05-05 17:37 53.64557 0.09813 33295 ft 411 kts 117°
2026-05-05 17:37 53.63269 0.14215 32581 ft 415 kts 116°
2026-05-05 17:37 53.62018 0.18517 32969 ft 408 kts 117°
2026-05-05 17:37 53.60766 0.22770 32847 ft 414 kts 117°
2026-05-05 17:38 53.59496 0.27071 33163 ft 403 kts 117°
2026-05-05 17:38 53.58234 0.31253 33703 ft 398 kts 118°
2026-05-05 17:38 53.56949 0.35381 34074 ft 398 kts 118°
2026-05-05 17:38 53.55669 0.39509 34391 ft 399 kts 118°
2026-05-05 17:39 53.54395 0.43662 34669 ft 399 kts 118°
2026-05-05 17:39 53.53127 0.47820 34969 ft 400 kts 118°
2026-05-05 17:39 53.51858 0.51985 35266 ft 401 kts 118°
2026-05-05 17:40 53.49274 0.60562 33882 ft 434 kts 117°
2026-05-05 17:40 53.47992 0.64979 34379 ft 393 kts 119°
2026-05-05 17:40 53.46813 0.68676 36443 ft 339 kts 121°
2026-05-05 17:40 53.45692 0.72165 36696 ft 344 kts 119°
2026-05-05 17:41 53.44601 0.75741 37003 ft 340 kts 118°
2026-05-05 17:41 53.43560 0.79251 37549 ft 330 kts 118°
2026-05-05 17:41 53.42566 0.82629 38162 ft 315 kts 119°
2026-05-05 17:41 53.41628 0.85822 38806 ft 295 kts 119°
2026-05-05 17:42 53.40732 0.88843 38765 ft 299 kts 120°
2026-05-05 17:42 53.40110 0.90863 38534 ft 308 kts 120°